Regional Weather Roundup
Issued by NWS

Home | Current Version | Previous Version | Text Only | Print | Product List | Glossary On
Versions: 1 2 3 4 5 6 7 8 9 10 11 12 13 14 15 16 17 18 19 20 21 22 23 24 25 26 27 28 29 30 31 32 33 34 35 36 37 38 39 40 41 42 43 44 45 46 47 48 49 50
000
ASUS44 KOUN 200510
RWROK

WEATHER ROUNDUP FOR OKLAHOMA
NATIONAL WEATHER SERVICE NORMAN OK
1200 AM CDT FRI OCT 20 2017

NOTE: "FAIR" INDICATES FEW OR NO CLOUDS BELOW 12,000 FEET WITH NO
      SIGNIFICANT WEATHER AND/OR OBSTRUCTIONS TO VISIBILITY.

OKZ001>007-009>012-014-015-017-200600-
NORTHWEST OKLAHOMA AND THE PANHANDLE

CITY           SKY/WX    TMP DP  RH WIND       PRES   REMARKS
GAGE           FAIR      65  47  52 S20       30.03S
GUYMON         FAIR      64  49  57 S17G26    29.97F
ENID/WOODRING  FAIR      57  54  88 S8        30.06S
$$

OKZ016-021>023-033>039-044-045-200600-
SOUTHWEST OKLAHOMA

CITY           SKY/WX    TMP DP  RH WIND       PRES   REMARKS
LAWTON/REGL    FAIR      64  52  64 SE9       30.07S
LAWTON/FT SILL FAIR      63  53  69 SE9       30.06S
FREDERICK      FAIR      60  51  72 E8        30.03S
CLINTON        FAIR      62  49  62 S16       30.07S
HOBART         FAIR      67  49  52 S20       30.06F
ALTUS AFB      FAIR      61  49  64 SE9       30.05S
$$

OKZ018>020-024>031-200600-
CENTRAL OKLAHOMA

CITY           SKY/WX    TMP DP  RH WIND       PRES   REMARKS
OKLAHOMA CITY  MOCLDY    60  52  74 S10       30.08F
OKC/WILEY POST FAIR      66  52  60 S18       30.07F
OKC/TINKER AFB FAIR      63  52  67 S9        30.08F
STILLWATER     FAIR      61  55  81 S7        30.09S
GUTHRIE        FAIR      64  52  64 SE10      30.08S
$$

OKZ008-013-054>072-200600-
NORTHEAST OKLAHOMA

CITY           SKY/WX    TMP DP  RH WIND       PRES   REMARKS
TULSA          MOCLDY    63  55  75 SE7       30.10S
TULSA/JONES    FAIR      56  54  93 CALM      30.11S
PONCA CITY     FAIR      65  54  67 SE14      30.07F
BARTLESVILLE   FAIR      52  50  93 CALM      30.12R
MUSKOGEE       FAIR      57  54  89 SE5       30.14S
$$

OKZ032-040>043-046>053-073>077-200600-
SOUTH CENTRAL/SOUTHEAST OKLAHOMA

CITY           SKY/WX    TMP DP  RH WIND       PRES   REMARKS
ARDMORE/DWNTWN FAIR      63  50  63 S3        30.10S
MCALESTER      FAIR      62  53  72 SE5       30.14R
$$





USA.gov is the U.S. government's official web portal to all federal, state and local government web resources and services.